Time,TemperatureF,DewpointF,PressureIn,WindDirection,WindDirectionDegrees,WindSpeedMPH,WindSpeedGustMPH,Humidity,HourlyPrecipIn,Conditions,Clouds,dailyrainin,SolarRadiationWatts/m^2,SoftwareType,DateUTC
2017-06-29 00:09:00,65.2,40.0,29.93,WNW,296,11.0,14.0,40,0.00,,,0.00,0,weatherlink.com 1.10,2017-06-29 07:09:00,
2017-06-29 00:24:00,64.7,40.0,29.93,West,280,9.0,17.0,40,0.00,,,0.00,0,weatherlink.com 1.10,2017-06-29 07:24:00,
2017-06-29 00:39:00,63.7,39.0,29.94,West,265,10.0,13.0,41,0.00,,,0.00,0,weatherlink.com 1.10,2017-06-29 07:39:00,
2017-06-29 00:54:00,63.5,39.0,29.94,West,262,11.0,16.0,41,0.00,,,0.00,0,weatherlink.com 1.10,2017-06-29 07:54:00,
2017-06-29 01:09:00,63.3,39.0,29.94,West,280,14.0,16.0,41,0.00,,,0.00,0,weatherlink.com 1.10,2017-06-29 08:09:00,
2017-06-29 01:24:00,63.1,39.0,29.94,West,266,12.0,16.0,41,0.00,,,0.00,0,weatherlink.com 1.10,2017-06-29 08:24:00,
2017-06-29 01:39:00,62.5,38.0,29.94,WSW,254,14.0,18.0,40,0.00,,,0.00,0,weatherlink.com 1.10,2017-06-29 08:39:00,
2017-06-29 01:54:00,62.1,38.0,29.95,WNW,282,14.0,17.0,41,0.00,,,0.00,0,weatherlink.com 1.10,2017-06-29 08:54:00,
2017-06-29 02:09:00,61.3,38.0,29.95,West,259,15.0,17.0,42,0.00,,,0.00,0,weatherlink.com 1.10,2017-06-29 09:09:00,
2017-06-29 02:24:00,60.5,38.0,29.95,West,277,11.0,16.0,43,0.00,,,0.00,0,weatherlink.com 1.10,2017-06-29 09:24:00,
2017-06-29 02:39:00,59.7,38.0,29.96,West,273,10.0,12.0,45,0.00,,,0.00,0,weatherlink.com 1.10,2017-06-29 09:39:00,
2017-06-29 02:54:00,59.3,39.0,29.96,West,260,10.0,13.0,47,0.00,,,0.00,0,weatherlink.com 1.10,2017-06-29 09:54:00,
2017-06-29 03:09:00,58.9,39.0,29.96,West,265,7.0,12.0,48,0.00,,,0.00,0,weatherlink.com 1.10,2017-06-29 10:09:00,
2017-06-29 03:24:00,58.8,38.0,29.97,West,280,9.0,12.0,46,0.00,,,0.00,0,weatherlink.com 1.10,2017-06-29 10:24:00,
2017-06-29 03:39:00,58.7,39.0,29.96,West,272,9.0,11.0,48,0.00,,,0.00,0,weatherlink.com 1.10,2017-06-29 10:39:00,
2017-06-29 03:54:00,58.8,38.0,29.96,West,279,7.0,10.0,47,0.00,,,0.00,0,weatherlink.com 1.10,2017-06-29 10:54:00,
2017-06-29 04:09:00,56.4,39.0,29.97,WSW,242,7.0,10.0,52,0.00,,,0.00,0,weatherlink.com 1.10,2017-06-29 11:09:00,
2017-06-29 04:25:00,55.7,39.0,29.97,WSW,245,12.0,12.0,54,0.00,,,0.00,0,weatherlink.com 1.10,2017-06-29 11:25:00,
2017-06-29 04:40:00,56.2,38.0,29.97,West,272,7.0,12.0,50,0.00,,,0.00,0,weatherlink.com 1.10,2017-06-29 11:40:00,
2017-06-29 04:55:00,55.6,38.0,29.98,WNW,282,9.0,13.0,52,0.00,,,0.00,0,weatherlink.com 1.10,2017-06-29 11:55:00,
2017-06-29 05:10:00,55.1,38.0,29.98,West,280,10.0,14.0,53,0.00,,,0.00,0,weatherlink.com 1.10,2017-06-29 12:10:00,
2017-06-29 05:25:00,55.0,38.0,29.98,WNW,283,7.0,13.0,53,0.00,,,0.00,0,weatherlink.com 1.10,2017-06-29 12:25:00,
2017-06-29 05:40:00,55.0,38.0,29.98,West,274,11.0,13.0,53,0.00,,,0.00,7,weatherlink.com 1.10,2017-06-29 12:40:00,
2017-06-29 05:55:00,54.7,38.0,29.98,West,274,8.0,10.0,54,0.00,,,0.00,12,weatherlink.com 1.10,2017-06-29 12:55:00,
2017-06-29 06:10:00,55.7,39.0,29.98,WSW,246,7.0,11.0,54,0.00,,,0.00,25,weatherlink.com 1.10,2017-06-29 13:10:00,
2017-06-29 06:25:00,54.3,39.0,29.99,West,275,8.0,12.0,56,0.00,,,0.00,28,weatherlink.com 1.10,2017-06-29 13:25:00,
2017-06-29 06:40:00,55.2,39.0,29.99,West,276,10.0,12.0,54,0.00,,,0.00,32,weatherlink.com 1.10,2017-06-29 13:40:00,
2017-06-29 06:55:00,55.7,39.0,30.00,West,273,10.0,11.0,53,0.00,,,0.00,179,weatherlink.com 1.10,2017-06-29 13:55:00,